SCP
0 1 1 1 1 1 1 1 1 1 1 1 1 1 1 0 0 0 0 0 0 0 0 0 0 0 0 0 0 0 0 0 0 0 0 0 0 0 0 0 0 0 0
0 1 1 1 1 1 1 1 1 1 1 1 1 1 1 0 0 0 0 0 0 0 0 0 0 0 0 0 0 0 0 0 0 0 0 0 0 0 0 0 0 0 0
0 1 1 1 1 1 1 1 1 1 1 1 1 1 1 0 0 0 0 0 0 0 0 0 0 0 0 0 0 0 0 0 0 0 0 0 0 0 0 0 0 0 0
0 1 1 1 1 1 1 1 1 1 1 1 1 1 1 1 0 0 0 0 0 0 0 0 0 0 0 0 0 0 0 0 0 0 0 0 0 0 0 0 0 0 0
0 0 1 1 1 1 1 1 1 1 1 1 1 1 1 1 0 0 0 0 0 0 0 0 0 0 0 0 0 0 0 0 0 0 0 0 0 0 0 0 0 0 0
0 0 1 1 1 1 1 1 1 1 1 1 1 1 1 1 0 0 0 0 0 0 0 0 0 0 0 0 0 0 0 0 0 0 0 0 0 0 0 0 0 0 0
0 0 1 1 1 1 1 1 1 1 1 1 1 1 1 1 0 0 0 0 0 0 0 0 0 0 0 0 0 0 0 0 0 0 0 0 0 0 0 0 0 0 0
0 0 1 1 1 1 1 1 1 1 1 1 1 1 1 1 1 0 0 0 0 0 0 0 0 0 0 0 0 0 0 0 0 0 0 0 0 0 0 0 0 0 0
0 0 1 1 1 1 1 1 1 1 1 1 1 1 1 1 1 0 0 0 0 0 0 0 0 0 0 0 0 0 0 0 0 0 0 0 0 0 0 0 0 0 0
0 0 0 0 0 0 1 1 1 1 1 1 1 1 1 1 0 0 0 0 0 0 0 0 0 0 0 0 0 0 0 0 0 0 0 0 0 0 0 0 0 0 0
0 0 0 0 0 0 0 1 1 1 1 1 1 1 0 0 0 0 0 0 0 0 0 0 0 0 0 0 0 0 0 0 0 0 0 0 0 0 0 0 0 0 0
0 0 0 0 0 0 0 0 0 1 1 1 1 0 0 0 0 0 0 0 0 0 0 0 0 0 0 0 0 0 0 0 0 0 0 0 0 0 0 0 0 0 0
0 0 0 0 0 0 0 0 0 0 0 0 0 0 0 0 0 0 0 0 0 0 0 0 0 0 0 0 0 0 0 0 0 0 0 0 0 0 0 0 0 0 0
0 0 0 0 0 0 0 0 0 0 0 0 0 0 0 0 0 0 0 0 0 0 0 0 0 0 0 0 0 0 0 0 0 0 0 0 0 0 0 0 0 0 0
0 0 0 0 0 0 0 0 0 0 0 0 0 0 0 0 0 0 0 0 0 0 0 0 0 0 0 0 0 0 0 0 0 0 0 0 0 0 0 0 0 0 0
0 0 0 0 0 0 0 0 0 0 0 0 0 0 0 0 0 0 0 0 0 0 0 0 0 0 0 0 0 0 0 0 0 0 0 0 0 0 0 0 0 0 0
0 0 0 0 0 0 0 0 0 0 0 0 0 0 0 0 0 0 0 0 0 0 0 0 0 0 0 0 0 0 0 0 0 0 0 0 0 0 0 0 0 0 0
0 0 0 0 0 0 0 0 0 0 0 0 0 0 0 0 0 0 0 0 0 0 0 0 0 0 0 0 0 0 0 0 0 0 0 0 0 0 0 0 0 0 0
0 0 0 0 0 0 0 0 0 0 0 0 0 0 0 0 0 0 0 0 0 0 0 0 0 0 0 0 0 0 0 0 0 0 0 0 0 0 0 0 0 0 0
0 0 0 0 0 0 0 0 0 0 0 0 0 0 0 0 0 0 0 0 0 0 0 0 0 0 0 0 0 0 0 0 0 0 0 0 0 0 0 0 0 0 0
0 0 0 0 0 0 0 0 0 0 0 0 0 0 0 0 0 0 0 0 0 0 0 0 0 0 0 0 0 0 0 0 0 0 0 0 0 0 0 0 0 0 0
0 0 0 0 0 0 0 0 0 0 0 0 0 0 0 0 0 0 0 0 0 0 0 0 0 0 0 0 0 0 0 0 0 0 0 0 0 0 0 0 0 0 0
0 0 0 0 0 0 0 0 0 0 0 0 0 0 0 0 0 0 0 0 0 0 0 0 0 0 0 0 0 0 0 0 0 0 0 0 0 0 0 0 0 0 0
0 0 0 0 0 0 0 0 0 0 0 0 0 0 0 0 0 0 0 0 0 0 0 0 0 0 0 0 0 0 0 0 0 0 0 0 0 0 0 0 0 0 0
0 0 0 0 0 0 0 0 0 0 0 0 0 0 0 0 0 0 0 0 0 0 0 0 0 0 0 0 0 0 0 0 0 0 0 0 0 0 0 0 0 0 0
0 0 0 0 0 0 0 0 0 0 0 0 0 0 0 0 0 0 0 0 0 0 0 0 0 0 0 0 0 0 0 0 0 0 0 0 0 0 0 0 0 0 0
Wind_Speed
2 7 15 16 17 16 16 16 15 15 15 16 17 17 17 17 17 17 16 15 15 15 15 15 15 15 15 15 14 14 14 13 14 13 13 12 12 13 13 12 11 7 13
4 7 14 15 16 16 16 15 15 14 14 16 17 17 17 17 17 16 16 15 15 15 15 16 15 15 15 15 14 14 13 13 13 13 11 9 10 12 12 11 10 7 12
4 8 11 14 15 15 15 15 14 14 15 15 16 17 17 17 16 16 16 15 15 15 15 15 15 15 15 14 13 13 13 12 12 11 9 5 6 11 11 11 11 11 11
4 6 8 13 15 15 15 15 15 15 15 15 15 16 16 16 16 16 16 15 15 15 15 15 15 15 14 13 12 12 12 11 11 10 5 3 3 9 10 10 10 11 10
4 4 6 13 14 15 15 15 15 15 15 15 15 15 15 16 16 16 15 15 14 14 14 15 14 14 13 12 12 12 11 11 10 7 4 3 3 8 9 9 9 10 9
3 3 5 10 13 14 14 15 15 16 15 15 14 15 15 15 15 15 14 14 14 14 14 14 14 13 12 12 11 11 10 10 8 4 3 3 2 7 8 8 8 8 8
1 2 4 10 12 13 14 15 15 15 15 15 15 15 15 15 15 14 14 14 14 14 14 14 13 12 11 11 11 10 10 9 5 3 2 2 2 6 7 7 7 7 7
1 1 2 7 9 11 13 14 15 15 15 15 15 15 15 15 14 14 14 14 14 14 14 13 12 11 10 10 10 10 9 7 5 3 2 1 2 5 6 6 5 5 5
1 1 1 2 5 8 10 12 13 14 14 14 13 13 12 12 13 14 14 14 14 14 13 12 11 10 9 9 9 9 7 7 4 2 1 1 2 3 4 4 4 3 3
1 0 1 1 2 3 5 9 11 12 12 12 12 11 11 11 12 13 12 13 13 13 12 11 11 10 8 8 8 7 7 6 3 2 1 1 3 3 3 2 2 2 1
2 1 1 1 1 2 4 6 8 9 10 10 9 10 9 6 7 8 10 11 11 11 11 11 10 9 7 6 6 6 5 2 2 1 1 3 3 3 2 2 1 1 1
4 3 2 2 2 2 3 3 4 5 5 5 5 7 5 5 5 7 9 10 11 10 9 9 9 7 5 2 3 4 2 2 2 1 2 4 4 4 3 2 2 2 2
5 5 4 3 3 3 2 3 3 3 4 4 6 7 5 4 4 4 4 5 6 7 5 5 5 3 3 2 2 2 2 2 1 1 2 4 4 4 3 3 2 2 2
5 6 5 4 4 4 3 3 4 4 4 4 6 7 6 4 4 4 4 4 4 3 3 3 2 3 3 3 3 2 2 2 2 1 2 4 4 4 4 3 3 2 2
7 7 6 5 5 4 4 3 4 5 5 5 5 7 7 6 6 5 4 4 4 4 4 4 3 3 3 2 2 3 3 2 2 2 1 3 4 4 4 4 3 3 3
8 8 6 6 6 5 5 4 4 4 5 5 5 7 8 6 6 6 5 5 5 4 4 4 4 4 3 2 2 2 2 2 2 2 2 2 3 3 3 4 4 4 3
9 8 7 7 7 7 6 6 4 4 5 5 6 7 8 7 8 7 6 5 5 5 5 4 3 3 2 2 2 2 2 2 2 3 2 2 1 2 3 4 4 3 3
8 8 8 7 7 7 6 6 4 4 5 5 5 6 8 8 8 7 6 5 5 5 4 4 4 3 3 2 2 1 1 2 3 3 2 2 2 1 2 2 2 2 2
8 8 8 7 7 7 6 5 5 5 5 5 5 5 7 8 8 7 6 5 6 5 4 5 4 3 3 3 2 1 1 2 2 2 3 3 2 2 1 1 1 1 1
7 7 8 7 7 6 4 4 3 4 4 4 5 6 8 7 8 7 5 6 6 5 5 4 4 3 3 3 2 1 1 1 2 2 3 2 2 3 2 2 1 1 1
6 7 8 8 7 5 4 4 5 5 5 5 5 6 7 7 8 7 5 6 6 6 6 6 4 4 3 3 2 0 1 1 2 2 2 2 3 3 3 2 2 1 1
5 6 6 7 6 6 5 4 3 4 4 4 4 5 7 7 8 7 7 6 6 5 6 6 5 4 3 4 3 2 1 2 2 2 2 3 3 2 3 3 2 2 2
4 5 5 6 6 6 6 4 3 2 2 3 4 4 5 6 6 6 7 6 6 6 6 7 7 6 4 3 3 4 3 4 1 1 3 3 3 3 3 3 3 3 2
3 3 4 4 4 4 5 5 7 5 4 4 3 3 4 5 6 6 6 6 6 6 6 6 7 5 5 4 3 3 2 3 3 2 2 2 3 4 4 3 3 3 3
1 1 3 3 3 3 4 5 6 4 3 3 3 3 4 4 4 5 5 5 6 5 6 6 6 6 5 5 4 3 2 1 2 3 3 2 2 3 4 4 4 4 4
3 2 2 3 2 2 3 3 4 5 4 4 4 4 3 3 3 3 4 5 5 5 6 6 6 7 6 6 5 4 4 4 4 3 4 4 3 3 3 3 4 4 4
Wind_Direction
190 171 169 162 160 158 156 153 149 145 142 141 141 141 141 141 140 139 138 136 133 129 125 122 120 117 114 111 106 102 97 92 89 86 83 83 86 87 84 79 74 66 73
175 170 169 164 163 162 160 157 152 149 147 146 145 145 144 144 143 143 142 139 136 132 129 125 122 118 114 110 105 102 99 94 90 86 79 77 84 88 86 83 82 78 75
154 166 168 165 165 165 162 159 156 154 153 151 150 150 149 148 147 146 144 144 140 135 132 129 125 120 116 113 109 105 102 98 94 88 78 64 81 88 86 82 81 79 77
153 161 168 168 169 169 166 163 161 161 159 156 154 153 153 152 151 149 147 145 141 137 133 130 126 122 119 117 114 109 105 102 98 89 68 56 69 91 89 83 78 75 74
140 150 166 172 174 173 171 168 166 166 164 162 159 158 157 156 155 152 150 146 141 138 135 131 127 125 123 122 118 113 108 106 100 86 71 57 56 92 91 86 80 76 73
132 148 166 174 179 177 174 171 171 170 169 167 165 163 163 161 159 156 150 145 140 139 138 135 132 129 128 126 122 116 112 109 98 86 76 62 59 97 97 92 86 82 77
122 152 173 176 184 184 180 176 175 175 174 172 171 168 167 165 163 157 151 147 144 144 143 142 139 135 132 130 126 120 116 115 108 99 88 73 95 106 103 98 92 86 81
130 152 174 186 186 189 187 181 179 179 179 176 175 174 172 169 165 159 156 153 151 151 150 149 145 141 137 134 130 126 124 120 116 117 110 105 129 113 109 104 99 91 83
76 106 179 192 190 192 192 188 185 182 181 178 175 176 173 168 165 162 162 159 158 157 156 154 151 146 143 139 135 132 130 125 121 132 141 166 153 128 116 115 110 100 89
21 59 213 180 190 191 194 195 189 183 179 177 174 172 170 167 164 164 163 162 162 161 160 159 157 152 147 143 141 137 132 123 133 140 155 212 188 158 143 137 135 134 123
305 281 233 190 191 197 193 196 188 180 178 175 170 163 160 160 160 162 164 163 164 163 164 165 162 156 147 144 144 141 130 134 151 167 203 226 201 185 179 179 181 188 196
265 257 238 213 202 202 204 188 183 176 171 168 161 156 152 151 157 157 163 165 166 164 166 169 166 156 137 132 140 133 130 151 163 193 227 233 217 205 201 203 210 220 228
254 256 244 225 213 202 198 185 180 169 164 164 160 155 151 149 150 150 156 162 161 159 159 166 156 144 143 148 145 146 157 162 180 212 241 244 233 221 215 219 226 230 226
248 251 247 231 221 210 195 190 186 173 170 171 170 164 159 158 159 160 163 163 161 161 160 157 152 152 154 159 162 167 175 183 194 211 239 242 244 236 229 227 231 240 228
237 242 243 230 219 209 195 194 189 181 178 176 172 172 168 166 170 169 168 169 169 166 169 166 163 163 166 170 181 183 193 199 204 209 237 242 242 243 238 238 238 242 231
234 235 232 223 219 208 201 197 197 185 178 176 178 178 175 173 173 173 173 176 177 176 175 174 173 170 174 175 191 195 202 204 207 209 214 237 239 237 240 240 241 243 237
232 229 225 223 216 209 203 199 199 190 179 180 183 181 182 178 176 175 178 180 181 175 170 165 162 156 170 181 201 210 210 206 204 209 208 209 225 237 238 241 241 242 229
230 227 225 224 212 208 206 196 192 191 183 182 181 181 184 181 176 174 178 183 176 170 172 172 170 167 181 185 195 212 214 207 208 207 202 200 201 215 242 240 244 247 233
223 222 222 216 212 204 201 191 187 187 186 181 178 180 182 180 176 174 178 179 172 171 176 181 176 172 182 184 187 200 214 220 216 202 204 205 200 196 208 225 216 252 253
224 217 218 213 212 200 188 179 180 187 187 181 183 183 178 177 175 174 176 177 174 175 179 181 177 173 174 168 165 181 237 238 221 207 207 199 196 197 199 202 203 222 214
223 213 210 207 206 188 179 179 179 191 188 184 187 184 180 176 176 176 181 177 179 185 186 180 174 173 172 150 128 299 298 242 223 218 204 196 198 196 188 192 192 179 205
225 215 208 205 202 194 187 175 167 170 179 176 178 181 179 178 179 181 182 183 184 185 186 185 175 173 179 173 156 144 269 288 247 210 207 209 208 193 191 189 183 183 185
240 216 204 200 197 193 182 159 141 131 132 161 175 180 178 176 178 180 180 181 185 188 193 193 187 183 185 193 188 171 180 222 255 240 216 209 201 200 201 194 195 192 190
261 216 186 186 187 183 172 162 164 171 173 172 174 176 173 175 180 183 185 185 186 190 193 197 195 190 179 190 205 212 200 173 181 238 247 222 211 210 205 199 194 198 196
304 171 160 163 173 171 161 166 165 167 164 145 143 158 171 176 178 183 187 192 192 194 198 197 197 197 194 193 192 188 191 214 196 197 243 243 239 229 214 204 199 201 200
34 70 108 129 130 133 140 153 163 162 155 152 156 166 173 172 172 180 190 198 198 198 202 202 202 203 207 205 204 197 187 192 200 196 223 234 236 235 221 211 209 206 204